Погода в Иновроцлаве

Польша     52°46′53″N   18°14′48″E
темп.,
°C
ветер,
м/с
пор.,
м/с
влажн.,
%
обл.,
%
осадки,
мм/ч
давл.,
гПа
погр.,
м
28 июля, ср
ср2823:00+21зюз3661100 0.0 101293
02:00+19юз226752 0.0 101214
05:00+19ююз336311 0.0 101226
08:00+22ююз466598 0.0 1012269
11:00+28юз46487 0.0 10111163
14:00+30юз573878 0.0 10102294
17:00+29зюз794024 0.0 10092252
20:00+23з496386 0.2 1010282
29 июля, чт
чт2923:00+21зсз226895 0.0 101171
02:00+17зюз388994 0.0 1011189
05:00+16зюз37920 0.0 1011160
08:00+20зюз57730 0.0 1011495
11:00+24зюз795133 0.0 10111869
14:00+26зюз810365 0.0 10102687
17:00+26з8103656 0.0 10102700
20:00+22зюз612480 0.0 1010480
30 июля, пт
пт3023:00+18юз4125699 0.0 1010257
02:00+16зюз356243 0.0 101096
05:00+14юз4869100 0.0 1010153
08:00+18зюз47586 0.0 1010357
11:00+23зюз69432 0.0 10091740
14:00+26зюз7103752 0.0 10082378
17:00+26з7937100 0.0 10072223
20:00+21зсз335592 0.0 100730
31 июля, сб
сб3123:00+18ссз116013 0.0 100711
02:00+17юв226146 0.0 100719
05:00+18ю3659100 0.0 1006141
08:00+20юз5961100 0.0 1005490
11:00+23зюз79465 0.0 10061552
14:00+25зюз811368 0.0 10062352
17:00+25з8103532 0.0 10062511
20:00+20з611490 0.0 1007530
1 августа, вс
вс123:00+16юз48630 0.0 1008166
02:00+15юз410720 0.0 1008222
05:00+14юз3783100 0.0 1009137
08:00+18зюз4771100 0.0 1009449
11:00+21зюз4555100 0.0 10091197
14:00+23юз3446100 0.0 10081813
17:00+23зсз125099 0.0 1007737
20:00+20зсз1161100 0.1 100711